Regional Weather Roundup
Issued by NWS New Orleans/Baton Rouge, LA

Home | Current Version | Previous Version | Text Only | Print | Product List | Glossary On
Versions: 1 2 3 4 5 6 7 8 9 10 11 12 13 14 15 16 17 18 19 20 21 22 23 24 25 26 27 28 29 30 31 32 33 34 35 36 37 38 39 40 41 42 43 44 45 46 47 48 49 50
000
ASUS44 KLIX 270010
RWRLIX
NEW ORLEANS REGIONAL WEATHER ROUNDUP
NATIONAL WEATHER SERVICE NEW ORLEANS LA
600 PM CST FRI DEC 26 2014

NOTE: "FAIR" INDICATES FEW OR NO CLOUDS BELOW 12,000 FEET WITH NO
      SIGNIFICANT WEATHER AND/OR OBSTRUCTIONS TO VISIBILITY.
      SKY/WX - SKY CONDITION AND SIGNIFICANT WEATHER.
      TMP - AIR TEMPERATURE.     DP    - DEWPOINT TEMPERATURE.
      RH  - RELATIVE HUMIDITY.   PRES  - PRESSURE.
      HI  - HEAT INDEX.          WCI   - WIND CHILL INDEX.

*  THESE STATIONS ARE NOT NWS OR FAA STATIONS AND ARE NOT UNDER
   NWS QUALITY CONTROL.

LAZ038-040-048-061>063-065>067-069-270100-
SOUTHEAST LOUISIANA

CITY           SKY/WX    TMP DP  RH WIND       PRES   REMARKS
N.O. AUDUBON   NOT AVBL
N.O. INTL ARPT CLOUDY    63  53  70 E12       30.14R
6HR MIN TEMP:  63; 6HR MAX TEMP:  68;

N.O. LAKEFRONT CLOUDY    62  54  74 E15G24    30.15S
6HR MIN TEMP:  62; 6HR MAX TEMP:  67;

N.O. DOWNTOWN* CLOUDY    63  52  67 E9        30.15S
6HR MIN TEMP:  63; 6HR MAX TEMP:  66;

SLIDELL        CLOUDY    63  53  70 E7        30.16S
6HR MIN TEMP:  63; 6HR MAX TEMP:  69;

BATON ROUGE    CLOUDY    61  53  75 E14       30.12S
6HR MIN TEMP:  61; 6HR MAX TEMP:  63; 6HR PCP: TRACE;

BOOTHVILLE     CLOUDY    62  58  86 E9        30.16S
6HR MIN TEMP:  62; 6HR MAX TEMP:  67;

BELLE CHASSE   CLOUDY    63  55  75 E14       30.14S
6HR MIN TEMP:  63; 6HR MAX TEMP:  71;

BOGALUSA*        N/A     66  52  60 SE7       30.18R
6HR MIN TEMP:  64; 6HR MAX TEMP:  71;

GALLIANO*      CLOUDY    65  57  76 MISG      30.13R
6HR MIN TEMP:  65; 6HR MAX TEMP:  73;

NEW ROADS*     CLOUDY    58  56  93 E7        30.12S
6HR MIN TEMP:  57; 6HR MAX TEMP:  61; 6HR PCP:  0.01;

GONZALES*      CLOUDY    61  57  87 E5        30.13R
6HR MIN TEMP:  61; 6HR MAX TEMP:  65;

HAMMOND*       NOT AVBL
HOUMA*         CLOUDY    63  57  82 E14       30.13R
PORT FOURCHON* CLOUDY    66  61  82 E14G22    30.15S

$$

MSZ070-080>082-270100-
SOUTHERN MISSISSIPPI

CITY           SKY/WX    TMP DP  RH WIND       PRES   REMARKS
MCCOMB         CLOUDY    60  53  77 E5        30.15S
6HR MIN TEMP:  60; 6HR MAX TEMP:  62; 6HR PCP: TRACE;

GULFPORT       CLOUDY    61  54  77 E16       30.19R
6HR MIN TEMP:  61; 6HR MAX TEMP:  67;

BILOXI         CLOUDY    62  54  76 SE10      30.19S
6HR MIN TEMP:  62; 6HR MAX TEMP:  68;

PASCAGOULA     CLOUDY    61  53  75 E6        30.21R
6HR MIN TEMP:  61; 6HR MAX TEMP:  68;

STENNIS ARPT*  CLOUDY    61  50  67 E12G18    30.17

$$

COASTAL OBSERVATIONS
LAKE AND NEARSHORE STATIONS

STATION/POSITION TIME  TEMP    WIND        PRES    WAVE
                       AIR SEA DIR/SP/G            HT/PER
                 (UTC) (F)     (DEG/KT/KT) (MB)    (FT/S)
PASCAGOULA       0000   62     100/ 15/ 20 1022.4
WAVELAND YACHT   0000   60     120/ 16/ 20 1020.9
GRAND ISLE       0000   64 62  100/ 11/ 14 1020.7
SOUTHWEST PASS   0000   65                 1020.8
NEW CANAL        0000   61 58   80/  4/ 10 1021.1
SHELL BEACH      0000   60 59   90/ 14/ 17 1020.8

OFFSHORE STATIONS

STATION/POSITION TIME  TEMP    WIND        PRES    WAVE
                       AIR SEA DIR/SP/G            HT/PER
                 (UTC) (F)     (DEG/KT/KT) (MB)    (FT/S)
64 S DAUPHIN ISL 0000   68 74  100/ 16/ 19 1021.3    2/ 4

$$



USA.gov is the U.S. government's official web portal to all federal, state and local government web resources and services.